STARLINK-37576, 69047

Orbit data source: Space-Track

STARLINK-37576, 69047 is a payload satellite owned by SpaceX/Seattle (US) in SSO that was launched on Wed, 06 May 2026 UTC via an FALCON 9 launch vehicle from the Air Force Western Test Range (AFWTR). Payload-class satellites include a variety of spacecraft equipped with specific instruments for various scientific and technological missions. These include communications satellites like Starlink; space stations such as the ISS; scientific satellites like the Hubble; Earth observation satellites from companies like Planet Labs, Umbra, and HawkEye 360; GPS; miniature CubeSats for education and research; and military/defense satellites.

Loading next visibility...
Identifier
69047, 2026-101Y
Orbit
SSO
Country
Flag of USUS
Related business
Manufacturer
SpaceX/Seattle
Mission
Operational Commercial Communications
Bus & Motor
STARLINK V2MO, Unknown motor
Mass
575 kg wet, ~530 kg dry
Launch date (UTC)
2026-05-06 (3 months ago)
Launch vehicle
FALCON 9
Launch site
Air Force Western Test Range (AFWTR)
Object type
Payload
Rocket body
Debris
Shape & HBR
Box + 2 Pan, 17.7 m
Radar Cross Section
36.964 m², Large (>1 m²)

Expand to show TLE details & history
Last TLE update: 1 day ago

TLE from 1 day ago
0 STARLINK-37576
1 69047U 26101Y   26206.13691032  .00014696  00000-0  45674-3 0  9992
2 69047  97.2834  60.5267 0003265  80.6350 279.5262 15.33435371 12398
Epoch: 2026-07-25T03:17Z
TLE epoch observation values (Epoch: 2026-07-25T03:17:09.051Z)
Latitude
-0.00001°
Longitude
68.38547°
Altitude
468.315 km
Speed
7.632 km/s
True Right ascension
04h 02m 06s
True Declination
0° 00' 00"
Sunlit
Object was in daylight at epoch
Visualization orbit readout
Latitude
Unknown
Longitude
Unknown
Altitude
Unknown
Speed
Unknown
Apparent Right ascension
Unknown
Apparent Declination
Unknown
Sunlit
N/A
Visualization observer readout
Local Sidereal Time
16:19:11
Azimuth
Unknown
Elevation
Unknown
Doppler factor
Unknown
Orbital elements
Apogee altitude
464.748 km
Perigee altitude
460.281 km
Semi-major axis
6,840.652 km
Eccentricity
0.00033
Inclination
97.2834°
RAAN
60.5267°
Arg. of periapsis
80.635°
True anomaly
279.4893°
Mean anomaly
279.5262°
Eccentric anomaly
279.50775°
Mean motion
3.83616 °/min
Orbital period
93.84 mins
BSTAR
0.00045674
Loading maneuver chart data...
Computing Atmospheric mass density...
Loading historical data...
Loading historical data...
Loading historical data...
Loading historical data...
Loading historical data...
Loading historical data...
Loading historical data...

Documentation

Showing up to 5 results
|